Time,TemperatureF,DewpointF,PressureIn,WindDirection,WindDirectionDegrees,WindSpeedMPH,WindSpeedGustMPH,Humidity,HourlyPrecipIn,Conditions,Clouds,dailyrainin,SoftwareType,DateUTC
2013-03-08 00:01:00,46.0,45.0,-100.00,NE,38,2.0,-999.0,95,0.05,,,-99.99,,2013-03-08 08:01:00,
2013-03-08 00:11:00,46.0,45.0,-100.00,NE,38,2.0,3.0,95,0.05,,,-99.99,,2013-03-08 08:11:00,
2013-03-08 00:21:00,46.0,45.0,-100.00,NE,38,2.0,3.0,95,0.05,,,-99.99,,2013-03-08 08:21:00,
2013-03-08 00:31:00,46.0,45.0,-100.00,NE,38,2.0,3.0,95,0.05,,,-99.99,,2013-03-08 08:31:00,
2013-03-08 00:41:00,46.0,45.0,-100.00,NE,38,2.0,3.0,95,0.05,,,-99.99,,2013-03-08 08:41:00,
2013-03-08 01:02:00,45.0,44.0,-100.00,ENE,58,2.0,-999.0,96,0.01,,,-99.99,,2013-03-08 09:02:00,
2013-03-08 01:11:00,45.0,44.0,-100.00,ENE,58,2.0,3.0,96,0.01,,,-99.99,,2013-03-08 09:11:00,
2013-03-08 01:21:00,45.0,44.0,-100.00,ENE,58,2.0,3.0,96,0.01,,,-99.99,,2013-03-08 09:21:00,
2013-03-08 01:31:00,45.0,44.0,-100.00,ENE,58,2.0,3.0,96,0.01,,,-99.99,,2013-03-08 09:31:00,
2013-03-08 01:41:00,45.0,44.0,-100.00,ENE,58,2.0,3.0,96,0.01,,,-99.99,,2013-03-08 09:41:00,
2013-03-08 02:01:00,45.0,44.0,-100.00,NNE,19,3.0,-999.0,96,0.01,,,-99.99,,2013-03-08 10:01:00,
2013-03-08 02:11:00,45.0,44.0,-100.00,NNE,19,3.0,4.0,96,0.01,,,-99.99,,2013-03-08 10:11:00,
2013-03-08 02:21:00,45.0,44.0,-100.00,NNE,19,3.0,4.0,96,0.01,,,-99.99,,2013-03-08 10:21:00,
2013-03-08 02:31:00,45.0,44.0,-100.00,NNE,19,3.0,4.0,96,0.01,,,-99.99,,2013-03-08 10:31:00,
2013-03-08 02:41:00,45.0,44.0,-100.00,NNE,19,3.0,4.0,96,0.01,,,-99.99,,2013-03-08 10:41:00,
2013-03-08 03:01:00,45.0,44.0,-100.00,North,10,1.0,-999.0,97,0.00,,,-99.99,,2013-03-08 11:01:00,
2013-03-08 03:11:00,45.0,44.0,-100.00,North,10,1.0,2.0,97,0.00,,,-99.99,,2013-03-08 11:11:00,
2013-03-08 03:21:00,45.0,44.0,-100.00,North,10,1.0,2.0,97,0.00,,,-99.99,,2013-03-08 11:21:00,
2013-03-08 03:32:00,45.0,44.0,-100.00,North,10,1.0,2.0,97,0.00,,,-99.99,,2013-03-08 11:32:00,
2013-03-08 03:41:00,45.0,44.0,-100.00,North,10,1.0,2.0,97,0.00,,,-99.99,,2013-03-08 11:41:00,
2013-03-08 04:01:00,45.0,44.0,-100.00,ESE,107,0.0,-999.0,97,0.00,,,-99.99,,2013-03-08 12:01:00,
2013-03-08 04:11:00,45.0,44.0,-100.00,ESE,107,0.0,0.0,97,0.00,,,-99.99,,2013-03-08 12:11:00,
2013-03-08 04:22:00,45.0,44.0,-100.00,ESE,107,0.0,0.0,97,0.00,,,-99.99,,2013-03-08 12:22:00,
2013-03-08 04:32:00,45.0,44.0,-100.00,ESE,107,0.0,0.0,97,0.00,,,-99.99,,2013-03-08 12:32:00,
2013-03-08 04:42:00,45.0,44.0,-100.00,ESE,107,0.0,0.0,97,0.00,,,-99.99,,2013-03-08 12:42:00,
2013-03-08 05:01:00,44.0,44.0,-100.00,North,0,2.0,-999.0,97,0.00,,,-99.99,,2013-03-08 13:01:00,
2013-03-08 05:11:00,44.0,44.0,-100.00,North,0,2.0,3.0,97,0.00,,,-99.99,,2013-03-08 13:11:00,
2013-03-08 05:21:00,44.0,44.0,-100.00,North,0,2.0,3.0,97,0.00,,,-99.99,,2013-03-08 13:21:00,
2013-03-08 05:32:00,44.0,44.0,-100.00,North,0,2.0,3.0,97,0.00,,,-99.99,,2013-03-08 13:32:00,
2013-03-08 05:42:00,44.0,44.0,-100.00,North,0,2.0,3.0,97,0.00,,,-99.99,,2013-03-08 13:42:00,
2013-03-08 06:02:00,45.0,44.0,-100.00,NNE,29,2.0,-999.0,97,0.00,,,-99.99,,2013-03-08 14:02:00,
2013-03-08 06:11:00,45.0,44.0,-100.00,NNE,29,2.0,3.0,97,0.00,,,-99.99,,2013-03-08 14:11:00,
2013-03-08 06:22:00,45.0,44.0,-100.00,NNE,29,2.0,3.0,97,0.00,,,-99.99,,2013-03-08 14:22:00,
2013-03-08 06:32:00,45.0,44.0,-100.00,NNE,29,2.0,3.0,97,0.00,,,-99.99,,2013-03-08 14:32:00,
2013-03-08 06:41:00,45.0,44.0,-100.00,NNE,29,2.0,3.0,97,0.00,,,-99.99,,2013-03-08 14:41:00,
2013-03-08 07:02:00,45.0,44.0,-100.00,East,92,0.0,-999.0,97,0.00,,,-99.99,,2013-03-08 15:02:00,
2013-03-08 07:11:00,45.0,44.0,-100.00,East,92,0.0,0.0,97,0.00,,,-99.99,,2013-03-08 15:11:00,
2013-03-08 07:21:00,45.0,44.0,-100.00,East,92,0.0,0.0,97,0.00,,,-99.99,,2013-03-08 15:21:00,
2013-03-08 07:31:00,45.0,44.0,-100.00,East,92,0.0,0.0,97,0.00,,,-99.99,,2013-03-08 15:31:00,
2013-03-08 07:42:00,45.0,44.0,-100.00,East,92,0.0,0.0,97,0.00,,,-99.99,,2013-03-08 15:42:00,
2013-03-08 08:01:00,45.0,44.0,-100.00,ESE,103,1.0,-999.0,97,0.00,,,-99.99,,2013-03-08 16:01:00,
2013-03-08 08:11:00,45.0,44.0,-100.00,ESE,103,1.0,3.0,97,0.00,,,-99.99,,2013-03-08 16:11:00,
2013-03-08 08:21:00,45.0,44.0,-100.00,ESE,103,1.0,3.0,97,0.00,,,-99.99,,2013-03-08 16:21:00,
2013-03-08 08:31:00,45.0,44.0,-100.00,ESE,103,1.0,3.0,97,0.00,,,-99.99,,2013-03-08 16:31:00,
2013-03-08 08:41:00,45.0,44.0,-100.00,ESE,103,1.0,3.0,97,0.00,,,-99.99,,2013-03-08 16:41:00,
2013-03-08 09:02:00,47.0,46.0,-100.00,SSE,155,3.0,-999.0,96,0.00,,,-99.99,,2013-03-08 17:02:00,
2013-03-08 09:11:00,47.0,46.0,-100.00,SSE,155,3.0,6.0,96,0.00,,,-99.99,,2013-03-08 17:11:00,
2013-03-08 09:21:00,47.0,46.0,-100.00,SSE,155,3.0,6.0,96,0.00,,,-99.99,,2013-03-08 17:21:00,
2013-03-08 09:31:00,47.0,46.0,-100.00,SSE,155,3.0,6.0,96,0.00,,,-99.99,,2013-03-08 17:31:00,
2013-03-08 09:41:00,47.0,46.0,-100.00,SSE,155,3.0,6.0,96,0.00,,,-99.99,,2013-03-08 17:41:00,
2013-03-08 10:01:00,49.0,47.0,-100.00,SE,137,4.0,-999.0,92,0.00,,,-99.99,,2013-03-08 18:01:00,
2013-03-08 10:11:00,49.0,47.0,-100.00,SE,137,4.0,8.0,92,0.00,,,-99.99,,2013-03-08 18:11:00,
2013-03-08 10:21:00,49.0,47.0,-100.00,SE,137,4.0,8.0,92,0.00,,,-99.99,,2013-03-08 18:21:00,
2013-03-08 10:31:00,49.0,47.0,-100.00,SE,137,4.0,8.0,92,0.00,,,-99.99,,2013-03-08 18:31:00,
2013-03-08 10:41:00,49.0,47.0,-100.00,SE,137,4.0,8.0,92,0.00,,,-99.99,,2013-03-08 18:41:00,
2013-03-08 11:01:00,53.0,47.0,-100.00,WSW,243,5.0,-999.0,80,0.00,,,-99.99,,2013-03-08 19:01:00,
2013-03-08 11:11:00,53.0,47.0,-100.00,WSW,243,5.0,9.0,80,0.00,,,-99.99,,2013-03-08 19:11:00,
2013-03-08 11:21:00,53.0,47.0,-100.00,WSW,243,5.0,9.0,80,0.00,,,-99.99,,2013-03-08 19:21:00,
2013-03-08 11:31:00,53.0,47.0,-100.00,WSW,243,5.0,9.0,80,0.00,,,-99.99,,2013-03-08 19:31:00,
2013-03-08 11:41:00,53.0,47.0,-100.00,WSW,243,5.0,9.0,80,0.00,,,-99.99,,2013-03-08 19:41:00,
2013-03-08 12:01:00,54.0,47.0,-100.00,WSW,244,9.0,-999.0,78,0.00,,,-99.99,,2013-03-08 20:01:00,
2013-03-08 12:11:00,54.0,47.0,-100.00,WSW,244,9.0,14.0,78,0.00,,,-99.99,,2013-03-08 20:11:00,
2013-03-08 12:21:00,54.0,47.0,-100.00,WSW,244,9.0,14.0,78,0.00,,,-99.99,,2013-03-08 20:21:00,
2013-03-08 12:31:00,54.0,47.0,-100.00,WSW,244,9.0,14.0,78,0.00,,,-99.99,,2013-03-08 20:31:00,
2013-03-08 12:41:00,54.0,47.0,-100.00,WSW,244,9.0,14.0,78,0.00,,,-99.99,,2013-03-08 20:41:00,
2013-03-08 13:02:00,55.0,48.0,-100.00,WSW,258,12.0,-999.0,77,0.00,,,-99.99,,2013-03-08 21:02:00,
2013-03-08 13:11:00,55.0,48.0,-100.00,WSW,258,12.0,19.0,77,0.00,,,-99.99,,2013-03-08 21:11:00,
2013-03-08 13:21:00,55.0,48.0,-100.00,WSW,258,12.0,19.0,77,0.00,,,-99.99,,2013-03-08 21:21:00,
2013-03-08 13:32:00,55.0,48.0,-100.00,WSW,258,12.0,19.0,77,0.00,,,-99.99,,2013-03-08 21:32:00,
2013-03-08 13:41:00,55.0,48.0,-100.00,WSW,258,12.0,19.0,77,0.00,,,-99.99,,2013-03-08 21:41:00,
2013-03-08 14:01:00,54.0,48.0,-100.00,WSW,252,17.0,-999.0,78,0.00,,,-99.99,,2013-03-08 22:01:00,
2013-03-08 14:11:00,54.0,47.0,-100.00,WSW,252,17.0,27.0,78,0.00,,,-99.99,,2013-03-08 22:11:00,
2013-03-08 14:21:00,54.0,47.0,-100.00,WSW,252,17.0,27.0,78,0.00,,,-99.99,,2013-03-08 22:21:00,
2013-03-08 14:32:00,54.0,47.0,-100.00,WSW,252,17.0,27.0,78,0.00,,,-99.99,,2013-03-08 22:32:00,
2013-03-08 14:41:00,54.0,47.0,-100.00,WSW,252,17.0,27.0,78,0.00,,,-99.99,,2013-03-08 22:41:00,
2013-03-08 15:01:00,53.0,47.0,-100.00,WSW,255,21.0,-999.0,79,0.00,,,-99.99,,2013-03-08 23:01:00,
2013-03-08 15:11:00,53.0,46.0,-100.00,WSW,255,21.0,30.0,79,0.00,,,-99.99,,2013-03-08 23:11:00,
2013-03-08 15:21:00,53.0,46.0,-100.00,WSW,255,21.0,30.0,79,0.00,,,-99.99,,2013-03-08 23:21:00,
2013-03-08 15:31:00,53.0,46.0,-100.00,WSW,255,21.0,30.0,79,0.00,,,-99.99,,2013-03-08 23:31:00,
2013-03-08 15:41:00,53.0,46.0,-100.00,WSW,255,21.0,30.0,79,0.00,,,-99.99,,2013-03-08 23:41:00,
2013-03-08 16:01:00,52.0,46.0,-100.00,WSW,250,24.0,-999.0,78,0.00,,,-99.99,,2013-03-09 00:01:00,
2013-03-08 16:11:00,52.0,45.0,-100.00,WSW,250,24.0,30.0,78,0.00,,,-99.99,,2013-03-09 00:11:00,
2013-03-08 16:21:00,52.0,45.0,-100.00,WSW,250,24.0,30.0,78,0.00,,,-99.99,,2013-03-09 00:21:00,
2013-03-08 16:31:00,52.0,45.0,-100.00,WSW,250,24.0,30.0,78,0.00,,,-99.99,,2013-03-09 00:31:00,
2013-03-08 16:41:00,52.0,45.0,-100.00,WSW,250,24.0,30.0,78,0.00,,,-99.99,,2013-03-09 00:41:00,
2013-03-08 17:01:00,51.0,45.0,-100.00,WSW,244,23.0,-999.0,78,0.00,,,-99.99,,2013-03-09 01:01:00,
2013-03-08 17:12:00,51.0,44.0,-100.00,WSW,244,23.0,34.0,78,0.00,,,-99.99,,2013-03-09 01:12:00,
2013-03-08 17:21:00,51.0,44.0,-100.00,WSW,244,23.0,34.0,78,0.00,,,-99.99,,2013-03-09 01:21:00,
2013-03-08 17:31:00,51.0,44.0,-100.00,WSW,244,23.0,34.0,78,0.00,,,-99.99,,2013-03-09 01:31:00,
2013-03-08 17:41:00,51.0,44.0,-100.00,WSW,244,23.0,34.0,78,0.00,,,-99.99,,2013-03-09 01:41:00,
2013-03-08 18:01:00,50.0,43.0,-100.00,WSW,245,20.0,-999.0,77,0.00,,,-99.99,,2013-03-09 02:01:00,
2013-03-08 18:11:00,50.0,43.0,-100.00,WSW,245,20.0,-999.0,77,0.00,,,-99.99,,2013-03-09 02:11:00,
2013-03-08 18:21:00,50.0,43.0,-100.00,WSW,245,20.0,-999.0,77,0.00,,,-99.99,,2013-03-09 02:21:00,
2013-03-08 18:31:00,50.0,43.0,-100.00,WSW,245,20.0,-999.0,77,0.00,,,-99.99,,2013-03-09 02:31:00,
2013-03-08 18:41:00,50.0,43.0,-100.00,WSW,245,20.0,-999.0,77,0.00,,,-99.99,,2013-03-09 02:41:00,
2013-03-08 19:01:00,49.0,42.0,-100.00,WSW,253,14.0,-999.0,77,0.00,,,-99.99,,2013-03-09 03:01:00,
2013-03-08 19:11:00,49.0,42.0,-100.00,WSW,253,14.0,-999.0,77,0.00,,,-99.99,,2013-03-09 03:11:00,
2013-03-08 19:21:00,49.0,42.0,-100.00,WSW,253,14.0,-999.0,77,0.00,,,-99.99,,2013-03-09 03:21:00,
2013-03-08 19:31:00,49.0,42.0,-100.00,WSW,253,14.0,-999.0,77,0.00,,,-99.99,,2013-03-09 03:31:00,
2013-03-08 19:41:00,49.0,42.0,-100.00,WSW,253,14.0,-999.0,77,0.00,,,-99.99,,2013-03-09 03:41:00,
2013-03-08 20:01:00,49.0,42.0,-100.00,West,263,11.0,-999.0,76,0.00,,,-99.99,,2013-03-09 04:01:00,
2013-03-08 20:11:00,49.0,42.0,-100.00,West,263,11.0,16.0,76,0.00,,,-99.99,,2013-03-09 04:11:00,
2013-03-08 20:22:00,49.0,42.0,-100.00,West,263,11.0,16.0,76,0.00,,,-99.99,,2013-03-09 04:22:00,
2013-03-08 20:31:00,49.0,42.0,-100.00,West,263,11.0,16.0,76,0.00,,,-99.99,,2013-03-09 04:31:00,
2013-03-08 20:41:00,49.0,42.0,-100.00,West,263,11.0,16.0,76,0.00,,,-99.99,,2013-03-09 04:41:00,
2013-03-08 21:02:00,49.0,42.0,-100.00,West,265,8.0,-999.0,78,0.00,,,-99.99,,2013-03-09 05:02:00,
2013-03-08 21:11:00,49.0,42.0,-100.00,West,265,8.0,11.0,78,0.00,,,-99.99,,2013-03-09 05:11:00,
2013-03-08 21:21:00,49.0,42.0,-100.00,West,265,8.0,11.0,78,0.00,,,-99.99,,2013-03-09 05:21:00,
2013-03-08 21:31:00,49.0,42.0,-100.00,West,265,8.0,11.0,78,0.00,,,-99.99,,2013-03-09 05:31:00,
2013-03-08 21:42:00,49.0,42.0,-100.00,West,265,8.0,11.0,78,0.00,,,-99.99,,2013-03-09 05:42:00,
2013-03-08 22:01:00,49.0,42.0,-100.00,WSW,249,8.0,-999.0,76,0.00,,,-99.99,,2013-03-09 06:01:00,
2013-03-08 22:11:00,49.0,42.0,-100.00,WSW,249,8.0,11.0,76,0.00,,,-99.99,,2013-03-09 06:11:00,
2013-03-08 22:22:00,49.0,42.0,-100.00,WSW,249,8.0,11.0,76,0.00,,,-99.99,,2013-03-09 06:22:00,
2013-03-08 22:31:00,49.0,42.0,-100.00,WSW,249,8.0,11.0,76,0.00,,,-99.99,,2013-03-09 06:31:00,
2013-03-08 22:41:00,49.0,42.0,-100.00,WSW,249,8.0,11.0,76,0.00,,,-99.99,,2013-03-09 06:41:00,
2013-03-08 23:01:00,49.0,42.0,-100.00,West,271,7.0,-999.0,77,0.00,,,-99.99,,2013-03-09 07:01:00,
2013-03-08 23:11:00,49.0,42.0,-100.00,West,271,7.0,9.0,77,0.00,,,-99.99,,2013-03-09 07:11:00,
2013-03-08 23:21:00,49.0,42.0,-100.00,West,271,7.0,9.0,77,0.00,,,-99.99,,2013-03-09 07:21:00,
2013-03-08 23:31:00,49.0,42.0,-100.00,West,271,7.0,9.0,77,0.00,,,-99.99,,2013-03-09 07:31:00,
2013-03-08 23:41:00,49.0,42.0,-100.00,West,271,7.0,9.0,77,0.00,,,-99.99,,2013-03-09 07:41:00,